Regional Weather Roundup
Issued by NWS Upton, NY

Current Version | Previous Version | Graphics & Text | Print | Product List | Glossary Off
Versions: 1 2 3 4 5 6 7 8 9 10 11 12 13 14 15 16 17 18 19 20 21 22 23 24 25 26 27 28 29 30 31 32 33 34 35 36 37 38 39 40 41 42 43 44 45 46 47 48 49 50
000 ASUS41 KOKX 232107 RWROKX REGIONAL WEATHER ROUNDUP NATIONAL WEATHER SERVICE NEW YORK NY 500 PM EDT THU MAR 23 2017 NOTE: "FAIR" INDICATES FEW OR NO CLOUDS BELOW 12,000 FEET WITH NO SIGNIFICANT WEATHER AND/OR OBSTRUCTIONS TO VISIBILITY. NYZ071-072-176-178-NJZ106-104-232200- NEW YORK CITY METRO AREA CITY SKY/WX TMP DP RH WIND PRES REMARKS Central Park SUNNY 42 -2 15 VRB6 30.53F Wall St Helipt CLEAR 45 6 20 SW8G37 30.52F LaGuardia APRT MOSUNNY 44 -1 15 NW10 30.50F Kennedy INTL MOSUNNY 43 0 16 W14 30.52F Breezy Point N/A 41 N/A N/A W8 N/A Newark/Liberty MOSUNNY 45 -2 14 W12 30.51F Teterboro SUNNY 43 4 19 NW15 30.50F $$ NYZ177-179-078>081-232200- LONG ISLAND NEW YORK CITY SKY/WX TMP DP RH WIND PRES REMARKS Jones Beach N/A 41 N/A N/A NW9G16 N/A Matinecock PT N/A 41 N/A N/A W14 N/A Farmingdale SUNNY 41 0 18 NW9G18 30.50F MacArthur/ISP MOSUNNY 40 0 18 NW15 30.49F WCI 32 Shirley SUNNY 40 1 19 NW10G20 30.51F WCI 33 Westhampton SUNNY 39 -4 16 NW17G25 30.51S WCI 30 East Hampton N/A 37 3 24 W13G18 30.49S WCI 29 Montauk N/A 38 3 23 W14G25 30.48S WCI 30 $$ NYZ052-065-067-232200- HUDSON VALLEY CITY SKY/WX TMP DP RH WIND PRES REMARKS White Plains SUNNY 40 0 18 NW10 30.48F WCI 33 Newburgh SUNNY 39 3 22 W12 30.48F WCI 32 Montgomery SUNNY 40 0 18 NW9 30.47F WCI 34 Poughkeepsie SUNNY 39 -1 18 VRB3 30.48F Albany MOSUNNY 36 7 29 NW18 30.49F WCI 26 $$ NJZ001-105-106-008-010-013-015-019>022-104-232200- NEW JERSEY CITY SKY/WX TMP DP RH WIND PRES REMARKS Newark/Liberty MOSUNNY 45 -2 14 W12 30.51F Teterboro SUNNY 43 4 19 NW15 30.50F Caldwell SUNNY 43 1 17 NW9 30.51F Somerville SUNNY 44 4 19 NW6G16 30.50F Linden N/A 44 1 17 NW6G17 30.52F Sussex SUNNY 39 1 20 NW7 30.49F WCI 34 Andover N/A 40 -2 17 VRB7 30.49F Trenton SUNNY 43 7 22 N6 30.51F Millville SUNNY 44 10 25 NW12 30.54F Atlantic City SUNNY 46 4 17 NW10 30.52F Wrightstown SUNNY 43 6 21 NW5 30.50F Toms River SUNNY 43 5 20 W10 30.53F Belmar SUNNY 43 3 19 NW8 30.53F $$ PAZ047>061-062-071-232200- EASTERN PENNSYLVANIA CITY SKY/WX TMP DP RH WIND PRES REMARKS Philadelphia MOSUNNY 45 7 21 SW12 30.53F Allentown SUNNY 44 5 20 W9 30.50F Scranton SUNNY 37 6 27 CALM 30.48F $$ CTZ002-004>006-009-010-012-RIZ004-006-007-MAZ004-011-015-232200- SOUTHERN NEW ENGLAND IN CT CITY SKY/WX TMP DP RH WIND PRES REMARKS Bradley INTL MOSUNNY 37 0 21 NW16 30.47F WCI 28 Hartford SUNNY 38 3 23 NW8 30.49S WCI 32 Danbury SUNNY 38 -2 18 W10 30.48F WCI 31 Wtrbury/Oxford SUNNY 36 1 23 NW9G18 30.47F WCI 29 Bridgeport SUNNY 43 -1 16 W15G21 30.49F Meriden SUNNY 40 0 18 NW15 30.48F WCI 32 New Haven SUNNY 39 1 20 NW9 30.49F WCI 33 Chester N/A 36 -6 17 NW15 30.47S WCI 26 Groton SUNNY 39 -1 18 W15G22 30.47S WCI 31 Wilimantic SUNNY 38 0 20 W12G22 30.47R WCI 30 IN RI CITY SKY/WX TMP DP RH WIND PRES REMARKS Providence MOSUNNY 39 -2 17 N17G24 30.44S WCI 30 Block Island SUNNY 38 5 25 W14G23 30.46F WCI 30 Westerly SUNNY 41 -2 16 W9G23 30.46S IN MA CITY SKY/WX TMP DP RH WIND PRES REMARKS Boston MOSUNNY 37 1 22 W21G26 30.42S WCI 26 Worcester SUNNY 32 -1 24 W18G25 30.39R WCI 20 Westfield SUNNY 37 4 25 NW14 30.46S WCI 28 Provincetown SUNNY 36 7 29 W18 30.41F WCI 26 Nantucket SUNNY 36 1 22 W14G21 30.43S WCI 27 $$ ANZ330-335-338-340-345-350-353-355-232200- COASTAL MARINE OBSERVATIONS STATION/POSITION TIME SKY/WX TEMP WIND PRES VSBY WAVE AIR SEA DIR/SP/G HT/PER (UTC) (F) (DEG/KT/KT) (MB) (MI) (FT/S) NY HARB ENTRANCE 1950 36 42 290/ 10/ 14 1034.1 1/ 3 20 S FIRE ISLAND 2050 36 41 280/ 12/ 16 1033.5 2/ 4 GREAT SOUTH BAY NOT AVBL 23 SSW MONTAUK P 1950 35 42 1032.9 3/ 4 15 E BARNEGAT LI 2030 44 N/A 2/10 HUDSON CANYON 1950 33 45 310/ 14/ 17 1034.4 4/ 5 KINGS POINT 2042 39 39 1033.0 EXECUTION ROCKS NOT AVBL CENTRAL LI SOUND NOT AVBL EASTERN LI SOUND NOT AVBL ROBBINS REEF 2042 40 310/ 8/ 10 1033.4 $$ >>>>>>>>>>>>>>>>>>>>>>>>>>>> KEY <<<<<<<<<<<<<<<<<<<<<<<<<<< > < > SKY/WX - Sky Condition/Present Weather < > TMP - Temperature in Fahrenheit < > DP - Dew Point in Fahrenheit < > RH - Relative Humidity in Percent < > WIND - Direction (from) and Speed in MPH < > PRES - Mean Sea Level Pressure (inches of Hg) < > WCI - Wind Chill Index < > VSB - VISIBILITY IN MILES < > HX - HEAT INDEX < > TC - TEMPERATURE IN CELSIUS < > VRB - VARIABLE WIND DIRECTION < > < >>>>>>>>>>>>>>>>>>>>>>>>>>>> KEY <<<<<<<<<<<<<<<<<<<<<<<<<<<

USA.gov is the U.S. government's official web portal to all federal, state and local government web resources and services.